Lexington Weather

Lexington, Massachusetts, USA

71°F
9/22/2021 2:19pm 
  • Lexington Conditions: Light rain, Mist, Overcast
  • Temperature: 71.4°F / 21.9°CColder 3.8°F than last hour.
  • Dew Point: 68.9°FIncreased 0.4°Fsince last hour.
  • Relative Humidity: 92%Increased 12.0% since last hour.
  • Wind: Wind from W W 8 mph, 10-min avg: 3 mph, gust: 10 mph
  • Barometer: 30.08 inFalling 0.02  inHg/hr Falling Slowly
  • Visibility: 2 miles
  • Rain Today: 0.00 in
  •   

Regional Weather Roundup
for Boston / Norton, MA

        
000
ASUS41 KBOX 161304
RWRBOX

REGIONAL WEATHER ROUNDUP
NATIONAL WEATHER SERVICE BOSTON/NORTON MA
900 AM EDT THU SEP 16 2021

NOTE:  "FAIR" INDICATES FEW OR NO CLOUDS BELOW 12,000 FEET WITH NO 
SIGNIFICANT WEATHER AND/OR OBSTRUCTIONS TO VISIBILITY.

MAZALL-161400-
EASTERN MASSACHUSETTS
  
CITY           SKY/WX    TMP DP  RH WIND       PRES   REMARKS
BOSTON         LGT RAIN  68  64  88 E3        30.21R                  
BEVERLY        CLOUDY    67  64  90 CALM      30.21R                  
LAWRENCE       CLOUDY    67  65  93 CALM      30.25R                  
BEDFORD        CLOUDY    67  66  97 NE3       30.19R                  
BLUE HILL      NOT AVBL                                               
NORWOOD        CLOUDY    68  65  90 CALM      30.21R                  
MARSHFIELD     LGT RAIN  64  64 100 CALM      30.19F                  
PLYMOUTH       RAIN      65  64  97 E7        30.20R                  
TAUNTON        LGT RAIN  66  64  93 E3        30.18R                  
NEW BEDFORD    LGT RAIN  67  65  93 E6        30.18S                  
$$

MAZALL-161400-
CAPE COD AND THE ISLANDS
  
CITY           SKY/WX    TMP DP  RH WIND       PRES   REMARKS
FALMOUTH       PTSUNNY   66  66 100 NE12      30.21R THUNDER          
HYANNIS        LGT RAIN  66  65  96 NE9       30.20S FOG              
CHATHAM        RAIN      65  64  97 NE5       30.25S                  
PROVINCETOWN   LGT RAIN  65  64  97 E10       30.20F                  
NANTUCKET      LGT RAIN  70  66  87 N24G32    30.21R                  
MARTHAS VNYRD  CLOUDY    67  66  97 NE10      30.20R                  
$$
 
MAZALL-161400-
CENTRAL AND WESTERN MASSACHUSETTS
  
CITY           SKY/WX    TMP DP  RH WIND       PRES   REMARKS
WORCESTER      CLOUDY    65  62  90 CALM      30.24R                  
FITCHBURG      CLOUDY    67  64  90 NW5       30.23R                  
ORANGE         CLOUDY    65  62  90 N6        30.24R                  
SPRINGFIELD    PTSUNNY   65  63  93 N3        30.21R                  
WESTFIELD      CLOUDY    66  64  93 N6        30.22R                  
NORTH ADAMS    CLOUDY    63  60  90 CALM      30.25R                  
PITTSFIELD     CLOUDY    62  60  93 NE5       30.24R                  
$$
 
RIZALL-161400-
RHODE ISLAND
  
CITY           SKY/WX    TMP DP  RH WIND       PRES   REMARKS
PROVIDENCE     CLOUDY    68  66  93 N9        30.22R                  
NEWPORT        LGT RAIN  67  65  93 E8        30.17F                  
BLOCK ISLAND   LGT RAIN  68  65  90 NE8         N/A                   
SMITHFIELD     LGT RAIN  65  65 100 N6        30.23R                  
WESTERLY       CLOUDY    66  66 100 N8        30.18R                  
$$
 
CTZALL-161400-
CONNECTICUT
  
CITY           SKY/WX    TMP DP  RH WIND       PRES   REMARKS
BRADLEY INTL   CLOUDY    65  64  97 N7        30.21R                  
HARTFORD       LGT RAIN  67  63  87 NE3       30.20R                  
BRIDGEPORT     CLOUDY    69  65  86 NE9       30.17R                  
DANBURY        CLOUDY    68  63  84 NE3       30.21R                  
GROTON         CLOUDY    68  65  90 N13       30.18R                  
NEW HAVEN      CLOUDY    69  67  93 N12       30.17R                  
CHESTER        LGT RAIN  66  64  94 N6        30.19F                  
MERIDEN        CLOUDY    67  63  87 N6        30.19F                  
WILLIMANTIC    LGT RAIN  65  64  97 NE6       30.21R FOG              
OXFORD         CLOUDY    64  63  96 NE9       30.22R                  
$$

MEZ002-015-021-024-NHZ003-005-008-011-012-014-VTZ005-008-161400-
NORTHERN NEW ENGLAND
  
CITY           SKY/WX    TMP DP  RH WIND       PRES   REMARKS
PORTLAND ME    CLOUDY    64  61  90 N9        30.24R                  
BANGOR ME      CLOUDY    60  56  86 N8        30.26R                  
CONCORD NH     NOT AVBL                                               
MANCHESTER NH  CLOUDY    68  60  75 N8        30.21R                  
NASHUA NH      CLOUDY    66  66 100 N7        30.23R                  
PORTSMOUTH NH  CLOUDY    67  64  90 CALM      30.24R                  
JAFFREY NH     CLOUDY    64  61  90 VRB3      30.25R                  
KEENE NH       CLOUDY    64  62  93 NW6       30.25R                  
BURLINGTON VT  MOSUNNY   57  55  93 NE5       30.28R FOG              
MT. WASHINGTON PTSUNNY   45  30  57 N9          N/A                   
$$

NYZ052-076-161400-
EASTERN NEW YORK
  
CITY           SKY/WX    TMP DP  RH WIND       PRES   REMARKS
ALBANY         PTSUNNY   60  58  92 N8        30.25R                  
NEW YORK CITY  CLOUDY    73  63  70 N10       30.16R                  
$$
 
ANZALL-161400-
MARINE OBSERVATIONS
  
STATION/POSITION TIME  TEMP    WIND        PRES    VSBY  WAVE
                       AIR SEA DIR/SP/G                  HT/PER
                 (UTC) (F)     (DEG/KT/KT) (MB)    (MI)  (FT/S)
BOSTON BUOY      1240      67   20/  4/  6 1023.4R
BUZZARDS BAY     1200           30/ 19/ 21 1022.7R
NANTUCKET SOUND  1240   68 72   20/ 17/ 21 1022.9R
MASS BAY-STELLWA 1204   65      70/  6/  8 1021.3F  1 7/8  2/ 5
ISLE OF SHOALS   1200   65     350/  7/  8 1021.8F
S OF BLOCK IS    1226      69                N/A           3/ 6
$$

......................KEY.........................
  SKY/WX - SKY CONDITION/PRESENT WEATHER
  TMP    - TEMPERATURE IN FAHRENHEIT
  DWPT   - DEWPOINT IN FAHRENHEIT
  RH     - RELATIVE HUMIDITY IN PERCENT
  WIND   - DIRECTION AND SPEED IN MPH
  PRES   - MEAN SEA LEVEL PRESSURE IN INCHES OF HG
  WCI    - WIND CHILL INDEX
  VSB    - VISIBILITY IN MILES
  HX     - HEAT INDEX
  TC     - TEMPERATURE IN CELSIUS
  VRB    - VARIABLE WIND DIRECTION
  N/A    - NOT AVAILABLE
  
      

Other recent Regional Weather Roundups

Wed Sep 22, 2:04pm

Wed Sep 22, 1:04pm

Wed Sep 22, 12:05pm

Wed Sep 22, 11:04am

Wed Sep 22, 10:04am

Wed Sep 22, 9:04am

Wed Sep 22, 8:04am

Wed Sep 22, 7:04am

Wed Sep 22, 6:04am

Wed Sep 22, 5:04am

Wed Sep 22, 4:04am

Wed Sep 22, 3:04am

Wed Sep 22, 2:04am

Wed Sep 22, 1:04am

Wed Sep 22, 12:04am

Tue Sep 21, 11:04pm

Tue Sep 21, 10:04pm

Tue Sep 21, 9:04pm

Tue Sep 21, 8:04pm

Tue Sep 21, 7:04pm

Tue Sep 21, 6:04pm

Tue Sep 21, 5:04pm

Tue Sep 21, 4:04pm

Tue Sep 21, 3:04pm

Tue Sep 21, 2:04pm

Tue Sep 21, 1:04pm

Tue Sep 21, 12:04pm

Tue Sep 21, 11:04am

Tue Sep 21, 10:04am

Tue Sep 21, 9:04am

Tue Sep 21, 8:04am

Tue Sep 21, 7:04am

Tue Sep 21, 6:04am

Tue Sep 21, 5:04am

Tue Sep 21, 4:04am

Tue Sep 21, 3:04am

Tue Sep 21, 2:04am

Tue Sep 21, 1:04am

Tue Sep 21, 12:04am

Mon Sep 20, 11:04pm

Mon Sep 20, 10:04pm

Mon Sep 20, 9:04pm

Mon Sep 20, 8:04pm

Mon Sep 20, 7:04pm

Mon Sep 20, 6:04pm

Mon Sep 20, 5:04pm

Mon Sep 20, 4:04pm

Mon Sep 20, 3:04pm

Mon Sep 20, 2:04pm

Mon Sep 20, 1:04pm

Mon Sep 20, 12:04pm

Mon Sep 20, 11:04am

Mon Sep 20, 10:04am

Mon Sep 20, 9:04am

Mon Sep 20, 7:04am

Mon Sep 20, 6:04am

Mon Sep 20, 5:04am

Mon Sep 20, 4:04am

Mon Sep 20, 3:04am

Mon Sep 20, 2:04am

Mon Sep 20, 1:04am

Mon Sep 20, 12:04am

Sun Sep 19, 11:04pm

Sun Sep 19, 10:04pm

Sun Sep 19, 9:04pm

Sun Sep 19, 8:04pm

Sun Sep 19, 7:04pm

Sun Sep 19, 6:04pm

Sun Sep 19, 5:04pm

Sun Sep 19, 4:04pm

Sun Sep 19, 3:04pm

Sun Sep 19, 2:05pm

Sun Sep 19, 1:04pm

Sun Sep 19, 12:04pm

Sun Sep 19, 11:04am

Sun Sep 19, 10:05am

Sun Sep 19, 9:04am

Sun Sep 19, 8:04am

Sun Sep 19, 7:04am

Sun Sep 19, 6:04am

Sun Sep 19, 5:04am

Sun Sep 19, 4:04am

Sun Sep 19, 3:04am

Sun Sep 19, 2:04am

Sun Sep 19, 1:04am

Sun Sep 19, 12:04am

Sat Sep 18, 11:05pm

Sat Sep 18, 10:04pm

Sat Sep 18, 9:04pm

Sat Sep 18, 8:04pm

Sat Sep 18, 7:04pm

Sat Sep 18, 6:04pm

Sat Sep 18, 5:04pm

Sat Sep 18, 4:04pm

Sat Sep 18, 3:04pm

Sat Sep 18, 2:04pm

Sat Sep 18, 1:04pm

Sat Sep 18, 12:04pm

Sat Sep 18, 11:04am

Sat Sep 18, 10:04am

Sat Sep 18, 9:04am

Sat Sep 18, 8:04am

Sat Sep 18, 7:04am

Sat Sep 18, 6:04am

Sat Sep 18, 5:04am

Sat Sep 18, 4:04am

Sat Sep 18, 3:04am

Sat Sep 18, 2:04am

Sat Sep 18, 1:04am

Sat Sep 18, 12:04am

Fri Sep 17, 11:04pm

Fri Sep 17, 10:04pm

Fri Sep 17, 9:04pm

Fri Sep 17, 8:04pm

Fri Sep 17, 7:04pm

Fri Sep 17, 6:04pm

Fri Sep 17, 5:04pm

Fri Sep 17, 4:04pm

Fri Sep 17, 3:04pm

Fri Sep 17, 2:04pm

Fri Sep 17, 1:04pm

Fri Sep 17, 12:05pm

Fri Sep 17, 11:04am

Fri Sep 17, 10:04am

Fri Sep 17, 9:04am

Fri Sep 17, 8:04am

Fri Sep 17, 7:04am

Fri Sep 17, 6:04am

Fri Sep 17, 5:04am

Fri Sep 17, 4:04am

Fri Sep 17, 3:04am

Fri Sep 17, 2:04am

Fri Sep 17, 1:04am

Fri Sep 17, 12:04am

Thu Sep 16, 11:04pm

Thu Sep 16, 10:04pm

Thu Sep 16, 9:04pm

Thu Sep 16, 8:04pm

Thu Sep 16, 7:04pm

Thu Sep 16, 6:04pm

Thu Sep 16, 5:04pm

Thu Sep 16, 4:04pm

Thu Sep 16, 3:04pm

Thu Sep 16, 2:04pm

Thu Sep 16, 1:05pm

Thu Sep 16, 12:04pm

Thu Sep 16, 11:05am

Thu Sep 16, 10:05am

Thu Sep 16, 8:04am

Thu Sep 16, 7:04am

Thu Sep 16, 6:04am

Thu Sep 16, 5:04am

Thu Sep 16, 4:04am

Thu Sep 16, 3:04am

Thu Sep 16, 2:04am

Thu Sep 16, 1:04am

Thu Sep 16, 12:04am

Wed Sep 15, 11:04pm

Wed Sep 15, 10:04pm

Wed Sep 15, 9:04pm

Wed Sep 15, 8:04pm

Wed Sep 15, 7:04pm

Wed Sep 15, 6:04pm

Wed Sep 15, 5:05pm

Wed Sep 15, 4:04pm

Wed Sep 15, 3:04pm

Meta data:

ID: 081f24ab-4034-4602-b1ea-e53ccd9975ce
Link: https://api.weather.gov/products/081f24ab-4034-4602-b1ea-e53ccd9975ce